�������l�o���
Date,Time,MP-1(��Sv/h),MP-2(��Sv/h),MP-3(��Sv/h),MP-4(��Sv/h),MP-5(��Sv/h),MP-6(��Sv/h),MP-7(��Sv/h),����,����(m/s),���J
2023/06/23,00:00,0.145,0.135,0.205,0.198,0.209,0.118,0.082,���k��,1.8,�L
2023/06/23,00:10,0.144,0.134,0.206,0.197,0.211,0.116,0.079,�k��,1.2,��
2023/06/23,00:20,0.143,0.132,0.203,0.197,0.207,0.116,0.078,�k��,1.4,��
2023/06/23,00:30,0.141,0.131,0.203,0.194,0.209,0.114,0.078,�k��,1.6,��
2023/06/23,00:40,0.142,0.130,0.202,0.195,0.206,0.114,0.076,�k��,1.2,��
2023/06/23,00:50,0.141,0.130,0.203,0.194,0.206,0.114,0.076,�k�k��,1.1,��
2023/06/23,01:00,0.141,0.130,0.200,0.194,0.206,0.113,0.075,�k��,2.7,��
2023/06/23,01:10,0.139,0.131,0.201,0.192,0.205,0.113,0.075,�k�k��,1.5,��
2023/06/23,01:20,0.140,0.130,0.200,0.194,0.206,0.111,0.075,�k��,2.2,��
2023/06/23,01:30,0.140,0.129,0.201,0.193,0.204,0.112,0.074,���k��,1.8,��
2023/06/23,01:40,0.138,0.129,0.199,0.193,0.206,0.112,0.074,�k��,3.2,��
2023/06/23,01:50,0.140,0.128,0.201,0.193,0.203,0.112,0.073,�k�k��,3.1,��
2023/06/23,02:00,0.138,0.128,0.198,0.193,0.206,0.111,0.073,�k�k��,3.2,�L
2023/06/23,02:10,0.140,0.129,0.200,0.191,0.205,0.112,0.074,�k��,3.3,��
2023/06/23,02:20,0.139,0.127,0.200,0.192,0.205,0.111,0.072,�k��,3.3,��
2023/06/23,02:30,0.140,0.128,0.201,0.192,0.204,0.110,0.073,�k�k��,2.8,�L
2023/06/23,02:40,0.139,0.128,0.199,0.193,0.206,0.111,0.073,�k,2.7,�L
2023/06/23,02:50,0.140,0.127,0.201,0.193,0.204,0.111,0.073,�k��,2.7,��
2023/06/23,03:00,0.139,0.129,0.200,0.193,0.205,0.111,0.072,�k�k��,3.4,��
2023/06/23,03:10,0.140,0.128,0.201,0.193,0.203,0.111,0.073,�k�k��,2.5,��
2023/06/23,03:20,0.139,0.129,0.199,0.192,0.204,0.112,0.073,�k�k��,4.9,�L
2023/06/23,03:30,0.141,0.129,0.201,0.194,0.205,0.112,0.074,�k��,5.3,�L
2023/06/23,03:40,0.141,0.129,0.202,0.194,0.206,0.112,0.074,�k��,5.3,�L
2023/06/23,03:50,0.141,0.129,0.202,0.194,0.206,0.112,0.076,�k��,5.0,��
2023/06/23,04:00,0.141,0.131,0.201,0.194,0.206,0.112,0.074,�k��,5.7,��
2023/06/23,04:10,0.140,0.129,0.202,0.194,0.208,0.112,0.074,�k�k��,5.6,��
2023/06/23,04:20,0.141,0.129,0.200,0.193,0.205,0.112,0.074,�k�k��,5.6,�L
2023/06/23,04:30,0.141,0.130,0.202,0.194,0.208,0.113,0.074,�k�k��,4.7,�L
2023/06/23,04:40,0.141,0.130,0.201,0.193,0.205,0.112,0.073,�k��,4.9,��
2023/06/23,04:50,0.141,0.130,0.202,0.194,0.207,0.112,0.074,�k��,5.1,��
2023/06/23,05:00,0.141,0.130,0.201,0.193,0.206,0.112,0.074,�k��,5.6,��
2023/06/23,05:10,0.140,0.129,0.203,0.195,0.207,0.113,0.074,�k��,4.6,��
2023/06/23,05:20,0.141,0.129,0.200,0.193,0.204,0.111,0.073,�k��,4.4,��
2023/06/23,05:30,0.139,0.128,0.202,0.194,0.206,0.112,0.073,�k��,5.2,��
2023/06/23,05:40,0.140,0.130,0.199,0.193,0.204,0.111,0.073,�k��,5.5,��
2023/06/23,05:50,0.138,0.128,0.200,0.194,0.205,0.111,0.073,�k��,6.6,��
2023/06/23,06:00,0.140,0.129,0.199,0.191,0.205,0.112,0.073,�k��,6.4,��
2023/06/23,06:10,0.139,0.128,0.200,0.194,0.204,0.112,0.072,�k��,5.6,��
2023/06/23,06:20,0.140,0.128,0.200,0.192,0.206,0.112,0.073,�k�k��,5.0,��
2023/06/23,06:30,0.139,0.128,0.201,0.193,0.204,0.112,0.073,�k�k��,4.3,��
2023/06/23,06:40,0.139,0.128,0.200,0.193,0.205,0.110,0.074,�k�k��,3.9,��
2023/06/23,06:50,0.142,0.128,0.199,0.192,0.205,0.112,0.073,�k�k��,2.3,��
2023/06/23,07:00,0.140,0.128,0.201,0.194,0.206,0.111,0.073,�k�k��,3.9,��
2023/06/23,07:10,0.140,0.128,0.199,0.193,0.206,0.112,0.073,�k�k��,5.1,��
2023/06/23,07:20,0.139,0.129,0.201,0.193,0.204,0.112,0.073,�k�k��,4.4,��
2023/06/23,07:30,0.139,0.129,0.200,0.193,0.206,0.112,0.073,�k�k��,3.9,��
2023/06/23,07:40,0.141,0.128,0.201,0.193,0.205,0.113,0.074,�k,3.2,��
2023/06/23,07:50,0.138,0.128,0.200,0.193,0.205,0.111,0.073,�k,2.4,��
2023/06/23,08:00,0.140,0.129,0.200,0.192,0.206,0.112,0.073,�k�k��,4.0,��
2023/06/23,08:10,0.140,0.129,0.201,0.194,0.205,0.112,0.073,�k�k��,3.8,��
2023/06/23,08:20,0.140,0.129,0.199,0.194,0.206,0.111,0.074,�k�k��,2.6,��
2023/06/23,08:30,0.140,0.128,0.200,0.193,0.206,0.112,0.073,�k�k��,3.2,��
2023/06/23,08:40,0.138,0.127,0.201,0.193,0.204,0.111,0.073,�k�k��,2.4,��
2023/06/23,08:50,0.141,0.129,0.199,0.192,0.206,0.112,0.073,�k,2.9,��
2023/06/23,09:00,0.140,0.128,0.201,0.191,0.206,0.112,0.074,�k,2.6,��
2023/06/23,09:10,0.139,0.127,0.202,0.194,0.204,0.112,0.073,�k,3.0,��
2023/06/23,09:20,0.141,0.128,0.200,0.193,0.205,0.111,0.073,�k,2.9,��
2023/06/23,09:30,0.140,0.128,0.201,0.192,0.206,0.112,0.074,�k,2.8,��
2023/06/23,09:40,0.139,0.128,0.201,0.194,0.204,0.112,0.073,�k,3.5,��
2023/06/23,09:50,0.140,0.129,0.200,0.193,0.204,0.111,0.073,�k�k��,3.7,��
2023/06/23,10:00,0.140,0.128,0.199,0.192,0.206,0.111,0.073,�k,2.9,��
2023/06/23,10:10,0.140,0.128,0.202,0.192,0.205,0.112,0.073,�k,2.5,��
2023/06/23,10:20,0.140,0.128,0.201,0.194,0.204,0.111,0.073,�k,3.3,��
2023/06/23,10:30,0.138,0.128,0.200,0.192,0.206,0.111,0.073,�k,3.6,��
2023/06/23,10:40,0.140,0.128,0.202,0.193,0.206,0.112,0.072,�k�k��,3.6,��
2023/06/23,10:50,0.140,0.128,0.199,0.194,0.203,0.112,0.072,�k�k��,2.9,��
2023/06/23,11:00,0.140,0.128,0.199,0.194,0.202,0.110,0.073,�k�k��,3.5,��
2023/06/23,11:10,0.141,0.129,0.201,0.191,0.203,0.112,0.072,�k�k��,3.9,��
2023/06/23,11:20,0.139,0.128,0.201,0.193,0.203,0.112,0.072,�k�k��,2.9,��
2023/06/23,11:30,0.138,0.127,0.200,0.193,0.202,0.111,0.073,���k��,1.4,��
2023/06/23,11:40,0.140,0.128,0.199,0.192,0.203,0.111,0.074,�k�k��,1.9,��
2023/06/23,11:50,0.141,0.130,0.199,0.192,0.205,0.111,0.074,�k��,2.8,��
2023/06/23,12:00,0.139,0.128,0.201,0.193,0.205,0.112,0.072,�k�k��,1.5,��
2023/06/23,12:10,0.139,0.128,0.201,0.195,0.204,0.112,0.073,�k�k��,2.2,��
2023/06/23,12:20,0.141,0.128,0.199,0.193,0.204,0.111,0.073,�k�k��,2.4,��
2023/06/23,12:30,0.141,0.128,0.201,0.192,0.206,0.112,0.073,�k�k��,2.1,�L
2023/06/23,12:40,0.140,0.128,0.203,0.194,0.205,0.112,0.073,�k�k��,2.9,�L
2023/06/23,12:50,0.141,0.128,0.200,0.195,0.204,0.112,0.072,�k��,3.1,�L
2023/06/23,13:00,0.140,0.130,0.199,0.194,0.203,0.112,0.073,�k�k��,2.8,�L
2023/06/23,13:10,0.140,0.129,0.200,0.193,0.207,0.112,0.073,�k�k��,2.0,��
2023/06/23,13:20,0.139,0.128,0.202,0.192,0.206,0.112,0.072,�k,1.3,��
2023/06/23,13:30,0.141,0.128,0.203,0.192,0.205,0.111,0.073,�k��,1.7,��
2023/06/23,13:40,0.140,0.129,0.203,0.195,0.204,0.111,0.072,�k��,1.3,��
2023/06/23,13:50,0.139,0.128,0.200,0.195,0.203,0.112,0.073,���k��,2.1,��
2023/06/23,14:00,0.139,0.128,0.201,0.194,0.203,0.113,0.072,�k��,2.5,��
2023/06/23,14:10,0.140,0.129,0.203,0.192,0.206,0.112,0.072,�k��,2.9,��
2023/06/23,14:20,0.139,0.129,0.202,0.194,0.207,0.112,0.074,�k�k��,1.9,��
2023/06/23,14:30,0.139,0.129,0.201,0.196,0.204,0.112,0.073,�k��,1.6,��
2023/06/23,14:40,0.141,0.129,0.204,0.195,0.206,0.112,0.073,�k��,2.7,��
2023/06/23,14:50,0.141,0.129,0.202,0.194,0.207,0.112,0.073,�k�k��,1.3,��
2023/06/23,15:00,0.139,0.128,0.200,0.196,0.205,0.113,0.074,�k�k��,1.6,��
2023/06/23,15:10,0.142,0.129,0.203,0.195,0.204,0.112,0.073,�k��,2.0,��
2023/06/23,15:20,0.142,0.129,0.204,0.193,0.208,0.111,0.073,�k��,1.4,��
2023/06/23,15:30,0.139,0.129,0.201,0.195,0.206,0.112,0.073,�k,0.9,��
2023/06/23,15:40,0.141,0.129,0.203,0.195,0.203,0.112,0.073,���k��,1.0,��
2023/06/23,15:50,0.141,0.129,0.203,0.194,0.207,0.111,0.073,�k��,0.9,��
2023/06/23,16:00,0.139,0.128,0.201,0.194,0.207,0.112,0.073,-,CALM,��
2023/06/23,16:10,0.140,0.129,0.201,0.196,0.205,0.112,0.073,�k��,0.8,��
2023/06/23,16:20,0.141,0.130,0.203,0.193,0.204,0.112,0.072,�k��,1.3,��
2023/06/23,16:30,0.139,0.128,0.203,0.194,0.209,0.112,0.073,��,1.5,��
2023/06/23,16:40,0.140,0.130,0.201,0.196,0.207,0.112,0.073,��,1.1,��
2023/06/23,16:50,0.142,0.129,0.204,0.194,0.204,0.112,0.072,��,0.8,��
2023/06/23,17:00,0.140,0.128,0.202,0.194,0.207,0.113,0.073,-,CALM,��
2023/06/23,17:10,0.141,0.129,0.202,0.196,0.207,0.113,0.073,�쓌,0.9,��
2023/06/23,17:20,0.142,0.129,0.204,0.196,0.204,0.112,0.072,�쓌,0.6,��
2023/06/23,17:30,0.139,0.128,0.202,0.194,0.206,0.112,0.073,���쓌,0.6,��
2023/06/23,17:40,0.141,0.129,0.202,0.196,0.206,0.112,0.074,-,CALM,��
2023/06/23,17:50,0.141,0.129,0.204,0.196,0.206,0.111,0.072,�쓌,0.8,��
2023/06/23,18:00,0.139,0.129,0.201,0.194,0.206,0.111,0.073,�쓌,0.8,��
2023/06/23,18:10,0.141,0.130,0.201,0.196,0.207,0.113,0.073,�쓌,1.1,��
2023/06/23,18:20,0.141,0.129,0.204,0.194,0.205,0.112,0.073,-,CALM,��
2023/06/23,18:30,0.139,0.128,0.201,0.194,0.205,0.112,0.073,��,0.9,��
2023/06/23,18:40,0.141,0.129,0.203,0.196,0.206,0.113,0.072,-,CALM,��
2023/06/23,18:50,0.141,0.129,0.202,0.195,0.204,0.112,0.072,�쐼,0.8,��
2023/06/23,19:00,0.140,0.130,0.200,0.194,0.207,0.113,0.073,-,CALM,��
2023/06/23,19:10,0.142,0.129,0.204,0.196,0.207,0.112,0.073,-,CALM,��
2023/06/23,19:20,0.141,0.129,0.202,0.194,0.204,0.112,0.073,-,CALM,��
2023/06/23,19:30,0.140,0.130,0.203,0.196,0.207,0.113,0.073,-,CALM,��
2023/06/23,19:40,0.141,0.128,0.202,0.195,0.206,0.113,0.073,-,CALM,�L
2023/06/23,19:50,0.139,0.129,0.201,0.193,0.205,0.111,0.072,�쐼,1.1,�L
2023/06/23,20:00,0.141,0.128,0.203,0.196,0.207,0.113,0.073,-,CALM,�L
2023/06/23,20:10,0.141,0.129,0.202,0.195,0.206,0.113,0.073,-,CALM,��
2023/06/23,20:20,-,-,-,-,-,-,-,-,-,-
2023/06/23,20:30,0.142,0.129,0.203,0.196,0.206,0.113,0.073,-,CALM,��
2023/06/23,20:40,0.141,0.130,0.202,0.194,0.206,0.112,0.073,-,CALM,��
2023/06/23,20:50,0.140,0.129,0.203,0.196,0.206,0.114,0.073,�k,0.7,��
2023/06/23,21:00,0.142,0.128,0.201,0.194,0.206,0.113,0.073,�k�k��,0.8,��
2023/06/23,21:10,0.140,0.130,0.202,0.195,0.204,0.112,0.073,�k,1.0,�L
2023/06/23,21:20,0.140,0.128,0.204,0.197,0.208,0.113,0.074,�k,0.6,�L
2023/06/23,21:30,0.142,0.130,0.203,0.195,0.206,0.113,0.074,-,CALM,�L
2023/06/23,21:40,0.140,0.129,0.203,0.197,0.206,0.113,0.074,�k,1.1,��
2023/06/23,21:50,0.142,0.129,0.203,0.196,0.208,0.113,0.074,�k�k��,0.7,��
2023/06/23,22:00,0.141,0.130,0.204,0.195,0.206,0.112,0.073,�k��,0.8,�L
2023/06/23,22:10,0.141,0.130,0.202,0.197,0.207,0.113,0.074,�k,0.6,�L
2023/06/23,22:20,0.142,0.129,0.203,0.195,0.207,0.113,0.073,�k,0.9,�L
2023/06/23,22:30,0.141,0.130,0.203,0.198,0.205,0.114,0.074,�k�k��,1.3,�L
2023/06/23,22:40,0.144,0.131,0.203,0.197,0.209,0.114,0.076,���쓌,0.7,�L
2023/06/23,22:50,0.145,0.132,0.206,0.198,0.206,0.115,0.077,-,CALM,�L
2023/06/23,23:00,0.146,0.132,0.205,0.198,0.208,0.115,0.077,-,CALM,�L
2023/06/23,23:10,0.145,0.133,0.206,0.196,0.209,0.114,0.076,-,CALM,�L
2023/06/23,23:20,0.144,0.132,0.205,0.198,0.207,0.115,0.076,��,0.6,��
2023/06/23,23:30,0.144,0.132,0.204,0.196,0.208,0.115,0.075,-,CALM,�L
2023/06/23,23:40,0.143,0.129,0.206,0.197,0.206,0.114,0.075,-,CALM,��
2023/06/23,23:50,0.143,0.131,0.203,0.197,0.208,0.114,0.074,�쐼,1.7,�L
